Location: Memphis International Airport Police
(35.0443°N, 89.9815°W)
Time: 05:11:58
(UTC+00:00)

USA 81 - Pass Details

Date: 26 September 2023
Orbit: 782 x 789 km, 85.0° (Epoch: 16 October)

Event Time Altitude Azimuth Distance (km) Brightness Sun altitude
Rises 00:57:45 0° 181° (S) 3,255 7.2 -14.1°
Reaches altitude 10° 01:00:05 10° 181° (S) 2,330 6.4 -14.6°
Maximum altitude 01:05:20 86° 92° (E) 789 4.0 -15.7°
Drops below altitude 10° 01:10:36 10° 5° (N) 2,344 6.6 -16.7°
Sets 01:12:57 0° 5° (N) 3,276 7.4 -17.2°
